Location: ???? ???? ?????
(31.2680°N, 31.7283°E)
Time: 19:29:11
(UTC+00:00)

Lacrosse 5 rocket - Pass Details

Date: 13 July 2020
Orbit: 464 x 632 km, 57.0° (Epoch: 06 August)

Event Time Altitude Azimuth Distance (km) Brightness Sun altitude
Rises 20:36:48 0° 337° (NNW) 2,669 5.9 -33.5°
Reaches altitude 10° 20:39:31 10° 354° (N) 1,742 4.6 -33.7°
Enters shadow 20:40:10 13° 1° (N) 1,561 4.3 -33.8°
